1520380800.08,20052,7.63,71512.3,-5.95,-14.23,-16.09,0,*56
1520380801.32,20053,7.63,71522.0,-5.97,-14.33,-16.09,0,*54
1520380802.55,20054,7.63,71512.0,-5.97,-14.33,-16.09,0,*53
1520380803.76,20055,7.63,71512.8,-5.97,-14.23,-15.99,0,*59
1520380804.97,20056,7.63,71504.0,-5.97,-14.19,-15.67,0,*52
1520380806.18,20057,7.63,71494.0,-5.97,-14.11,-15.49,0,*57
1520380807.42,20058,7.63,71492.3,-5.97,-14.11,-15.21,0,*56
1520380808.66,20059,7.63,71488.3,-5.97,-14.05,-15.07,0,*56
1520380809.92,20060,7.63,71492.8,-5.95,-13.97,-14.75,0,*56
1520380811.13,20061,7.63,71488.0,-5.95,-13.93,-14.37,0,*55
1520380812.34,20062,7.63,71484.0,-5.97,-13.73,-14.19,0,*56
1520380813.57,20063,7.63,71476.5,-5.97,-13.51,-13.87,0,*57
1520380814.82,20064,7.63,71478.8,-5.97,-13.37,-13.61,0,*58
1520380816.08,20065,7.63,71476.5,-5.97,-13.33,-13.37,0,*5E
1520380817.28,20066,7.63,71488.3,-5.97,-13.07,-13.11,0,*5E
1520380818.49,20067,7.63,71486.5,-5.95,-12.93,-12.89,0,*51
1520380819.75,20068,7.63,71486.0,-5.95,-12.65,-12.65,0,*55
1520380820.98,20069,7.63,71482.5,-5.97,-12.39,-12.61,0,*5B
1520380822.22,20070,7.63,71482.8,-5.95,-12.11,-12.39,0,*56
1520380823.49,20071,7.63,71482.5,-5.95,-11.89,-12.35,0,*59
1520380824.73,20072,7.63,71476.8,-5.95,-11.63,-12.21,0,*5B
1520380825.97,20073,7.63,71478.8,-5.95,-11.63,-12.39,0,*53
1520380827.2,20074,7.63,71478.8,-5.97,-11.37,-12.39,0,*57
1520380828.42,20075,7.63,71478.8,-5.95,-11.23,-12.39,0,*51
1520380829.63,20076,7.63,71478.0,-5.95,-11.11,-12.39,0,*53
1520380830.85,20077,7.63,71474.8,-5.95,-10.97,-12.39,0,*5D
1520380832.08,20078,7.63,71474.3,-5.97,-11.07,-12.47,0,*51
1520380833.33,20079,7.63,71476.5,-5.95,-10.97,-12.53,0,*5F
1520380834.57,20080,7.63,71478.3,-5.95,-10.97,-12.53,0,*59
1520380835.82,20081,7.63,71476.8,-5.95,-10.97,-12.53,0,*58
1520380837.05,20082,7.63,71476.3,-5.95,-10.93,-12.65,0,*5A
1520380838.28,20083,7.63,71478.8,-5.97,-10.93,-12.65,0,*59
1520380839.53,20084,7.63,71478.5,-5.97,-11.07,-12.65,0,*52
1520380840.8,20085,7.63,71476.5,-5.95,-11.07,-12.79,0,*5C
1520380842.07,20086,7.63,71472.5,-5.95,-11.07,-12.75,0,*53
1520380843.33,20087,7.63,71466.8,-5.97,-11.07,-12.61,0,*55
1520380844.56,20088,7.63,71470.3,-5.95,-11.15,-12.61,0,*5B
1520380845.8,20089,7.63,71470.3,-5.95,-11.15,-12.61,0,*5A
1520380847.06,20090,7.63,71470.0,-5.97,-11.29,-12.61,0,*5F
1520380848.3,20091,7.63,71478.3,-5.95,-11.41,-12.53,0,*53
1520380849.54,20092,7.63,71480.0,-5.95,-11.55,-12.39,0,*59
1520380850.78,20093,7.63,71474.5,-5.95,-11.55,-12.39,0,*58
1520380852.02,20094,7.63,71472.0,-5.95,-11.67,-12.21,0,*57
1520380853.25,20095,7.63,71480.3,-5.97,-11.81,-12.21,0,*5C
1520380854.49,20096,7.63,71476.3,-5.95,-11.81,-12.03,0,*5D
1520380855.75,20097,7.63,71456.8,-5.95,-11.89,-11.89,0,*55
1520380857.02,20098,7.63,71476.5,-5.95,-11.93,-11.77,0,*50
1520380858.29,20099,7.63,71480.0,-5.95,-11.93,-11.67,0,*50
1520380859.56,20100,7.63,71458.5,-5.95,-12.07,-11.67,0,*5F
1520380860.83,20101,7.63,71452.0,-5.95,-12.07,-11.63,0,*5A
1520380862.07,20102,7.63,71464.0,-5.95,-12.25,-11.63,0,*59
1520380863.31,20103,7.63,71464.3,-5.95,-12.47,-11.67,0,*58
1520380864.55,20104,7.63,71456.8,-5.95,-12.47,-11.77,0,*5E
1520380865.81,20105,7.63,71462.8,-5.95,-12.61,-11.93,0,*51
1520380867.1,20106,7.63,71438.5,-5.93,-12.75,-12.11,0,*58
1520380868.34,20107,7.63,71458.8,-5.95,-12.97,-12.53,0,*55
1520380869.58,20108,7.63,71448.5,-5.95,-13.11,-12.65,0,*50
1520380870.84,20109,7.63,71442.0,-5.93,-13.33,-13.11,0,*55
1520380872.08,20110,7.63,71424.3,-5.95,-13.51,-13.37,0,*5B
1520380873.28,20111,7.63,71428.0,-5.97,-13.65,-13.73,0,*5F
1520380874.51,20112,7.63,71458.8,-5.95,-13.87,-14.11,0,*51
1520380875.75,20113,7.63,71452.5,-5.97,-14.05,-14.33,0,*5F
1520380876.97,20114,7.63,71446.0,-5.95,-14.19,-14.65,0,*54
1520380878.22,20115,7.63,71446.0,-5.95,-14.19,-14.83,0,*5D
1520380879.44,20116,7.63,71446.0,-5.95,-14.23,-15.11,0,*5D
1520380880.67,20117,7.63,71448.5,-5.95,-14.33,-15.21,0,*5E
1520380881.92,20118,7.63,71458.5,-5.93,-14.33,-15.49,0,*59
1520380883.14,20119,7.63,71468.8,-5.95,-14.37,-15.53,0,*51
1520380884.37,20120,7.63,71476.5,-5.97,-14.51,-15.67,0,*5E
1520380885.65,20121,7.63,71480.5,-5.95,-14.51,-15.81,0,*55
1520380886.88,20122,7.63,71482.5,-5.97,-14.61,-15.85,0,*53
1520380888.09,20123,7.63,71482.3,-5.95,-14.61,-15.95,0,*51
1520380889.33,20124,7.63,71488.0,-5.95,-14.65,-16.09,0,*54
1520380890.59,20125,7.63,71480.0,-5.95,-14.75,-16.13,0,*5F
1520380891.84,20126,7.63,71488.0,-5.97,-14.75,-16.27,0,*59
1520380893.08,20127,7.63,71488.5,-5.95,-14.79,-16.37,0,*57
1520380894.31,20128,7.63,71484.5,-5.95,-14.79,-16.37,0,*58
1520380895.57,20129,7.63,71484.3,-5.95,-14.79,-16.27,0,*58
1520380896.81,20130,7.63,71482.8,-5.97,-14.83,-16.41,0,*57
1520380898.05,20131,7.63,71480.0,-5.97,-14.93,-16.51,0,*56
1520380899.28,20132,7.63,71484.3,-5.97,-14.83,-16.37,0,*54
1520380900.54,20133,7.63,71480.8,-5.97,-14.83,-16.51,0,*55
1520380901.76,20134,7.63,71482.0,-5.97,-14.93,-16.41,0,*52
1520380902.99,20135,7.63,71476.3,-5.95,-14.97,-16.41,0,*55
1520380904.24,20136,7.63,71478.8,-5.97,-14.97,-16.51,0,*55
1520380905.48,20137,7.63,71478.0,-5.97,-14.93,-16.51,0,*50
1520380906.71,20138,7.63,71468.8,-5.97,-14.83,-16.37,0,*5E
1520380907.97,20139,7.63,71470.3,-5.97,-14.83,-16.51,0,*5F
1520380909.21,20140,7.63,71472.0,-5.97,-14.97,-16.51,0,*54
1520380910.44,20141,7.63,71474.3,-5.95,-14.97,-16.41,0,*56
1520380911.69,20142,7.63,71480.8,-5.97,-14.97,-16.51,0,*56
1520380912.97,20143,7.63,71474.0,-5.99,-14.83,-16.27,0,*5D
1520380914.24,20144,7.63,71476.8,-5.99,-14.79,-16.27,0,*5F
1520380915.5,20145,7.63,71486.0,-5.99,-14.83,-16.41,0,*5B
1520380916.72,20146,7.63,71490.0,-6.01,-14.97,-16.45,0,*5B
1520380917.95,20147,7.63,71494.3,-5.97,-14.83,-16.37,0,*56
1520380919.2,20148,7.63,71484.5,-5.97,-14.75,-16.27,0,*51
1520380920.45,20149,7.63,71482.3,-5.97,-14.75,-16.23,0,*54
1520380921.71,20150,7.63,71474.5,-5.95,-14.75,-16.27,0,*5A
1520380922.97,20151,7.63,71484.0,-5.97,-14.83,-16.27,0,*50
1520380924.2,20152,7.63,71494.3,-5.97,-14.83,-16.37,0,*52
1520380925.43,20153,7.63,71488.3,-5.97,-14.93,-16.41,0,*53
1520380926.65,20154,7.63,71496.0,-5.97,-14.97,-16.41,0,*50
1520380927.88,20155,7.63,71498.5,-5.97,-14.93,-16.41,0,*55
1520380929.12,20156,7.63,71500.5,-5.97,-14.93,-16.51,0,*57
1520380930.36,20157,7.63,71502.0,-5.97,-14.97,-16.51,0,*52
1520380931.6,20158,7.63,71502.3,-5.99,-15.01,-16.45,0,*58
1520380932.84,20159,7.63,71500.5,-5.99,-15.01,-16.45,0,*59
1520380934.09,20160,7.63,71504.8,-5.99,-15.01,-16.55,0,*52
1520380935.33,20161,7.63,71500.3,-5.97,-14.97,-16.51,0,*57
1520380936.58,20162,7.63,71502.8,-5.99,-15.01,-16.55,0,*50
1520380937.83,20163,7.63,71496.8,-5.99,-15.01,-16.55,0,*51
1520380939.05,20164,7.63,71498.3,-5.99,-15.11,-16.59,0,*5B
1520380940.28,20165,7.63,71498.0,-5.99,-15.11,-16.59,0,*5A
1520380941.5,20166,7.63,71500.3,-6.01,-15.11,-16.69,0,*58
1520380942.74,20167,7.63,71500.3,-5.99,-15.15,-16.59,0,*5C
1520380943.96,20168,7.63,71496.3,-5.97,-15.07,-16.65,0,*51
1520380945.19,20169,7.63,71502.0,-6.01,-15.15,-16.69,0,*53
1520380946.43,20170,7.63,71498.5,-6.01,-15.15,-16.69,0,*5B
1520380947.65,20171,7.63,71494.3,-6.01,-15.15,-16.69,0,*5A
1520380948.89,20172,7.63,71498.8,-5.99,-15.15,-16.59,0,*58
1520380950.14,20173,7.63,71498.5,-5.99,-15.15,-16.69,0,*5A
1520380951.4,20174,7.63,71498.5,-5.99,-15.15,-16.69,0,*5D
1520380952.65,20175,7.63,71498.8,-5.99,-15.15,-16.69,0,*5C
1520380953.86,20176,7.63,71496.0,-6.01,-15.25,-16.79,0,*5F
1520380955.06,20177,7.63,71496.0,-6.01,-15.25,-16.79,0,*5E
1520380956.3,20178,7.63,71492.0,-5.99,-15.25,-16.59,0,*51
1520380957.51,20179,7.63,71490.5,-6.01,-15.25,-16.59,0,*52
1520380958.74,20180,7.63,71490.5,-5.99,-15.15,-16.55,0,*59
1520380959.96,20181,7.63,71486.0,-5.99,-15.11,-16.55,0,*5C
1520380961.17,20182,7.63,71492.3,-6.01,-15.15,-16.55,0,*59
1520380962.4,20183,7.63,71496.0,-5.99,-15.15,-16.55,0,*5A
1520380963.62,20184,7.63,71498.8,-5.99,-15.11,-16.55,0,*59
1520380964.85,20185,7.63,71500.0,-5.99,-15.11,-16.55,0,*58
1520380966.06,20186,7.63,71498.5,-6.01,-15.15,-16.59,0,*51
1520380967.27,20187,7.63,71492.8,-6.01,-15.15,-16.55,0,*5C
1520380968.46,20188,7.63,71492.8,-6.01,-15.11,-16.45,0,*56
1520380969.68,20189,7.63,71490.0,-6.01,-15.01,-16.41,0,*52
1520380970.91,20190,7.63,71488.5,-5.99,-15.11,-16.41,0,*59
1520380972.13,20191,7.63,71484.3,-5.99,-15.11,-16.41,0,*58
1520380973.35,20192,7.63,71490.5,-5.99,-15.11,-16.41,0,*5B
1520380974.58,20193,7.63,71498.8,-5.99,-15.11,-16.41,0,*5A
1520380975.8,20194,7.63,71502.8,-6.01,-15.11,-16.27,0,*5F
1520380977.03,20195,7.63,71492.0,-6.01,-15.11,-16.17,0,*5D
1520380978.3,20196,7.63,71486.5,-5.99,-15.01,-16.27,0,*5E
1520380979.57,20197,7.63,71488.0,-5.99,-15.01,-16.17,0,*5C
1520380980.85,20198,7.63,71486.3,-5.99,-15.01,-16.17,0,*53
1520380982.1,20199,7.63,71484.8,-6.01,-15.01,-16.17,0,*50
1520380983.32,20200,7.63,71478.3,-6.01,-15.11,-16.13,0,*56
1520380984.56,20201,7.63,71480.5,-6.01,-15.15,-16.17,0,*57
1520380985.79,20202,7.63,71490.8,-6.01,-15.15,-16.27,0,*57
1520380987.01,20203,7.63,71488.3,-6.01,-15.11,-16.17,0,*51
1520380988.25,20204,7.63,71490.5,-6.01,-15.15,-16.17,0,*52
1520380989.5,20205,7.63,71488.5,-5.99,-15.15,-16.27,0,*52
1520380990.76,20206,7.63,71486.0,-5.99,-15.25,-16.17,0,*51
1520380992.02,20207,7.63,71486.5,-5.99,-15.25,-16.17,0,*50
1520380993.25,20208,7.63,71490.8,-6.01,-15.25,-16.27,0,*5E
1520380994.48,20209,7.63,71496.0,-6.01,-15.29,-16.31,0,*54
1520380995.71,20210,7.63,71502.5,-5.99,-15.29,-16.41,0,*59
1520380996.94,20211,7.63,71502.3,-6.01,-15.43,-16.45,0,*52
1520380998.17,20212,7.63,71496.3,-6.01,-15.39,-16.55,0,*5D
1520380999.4,20213,7.63,71496.5,-6.01,-15.43,-16.55,0,*51
1520381000.63,20214,7.63,71496.0,-6.01,-15.39,-16.55,0,*5B
1520381001.86,20215,7.63,71498.8,-6.01,-15.43,-16.59,0,*5B
1520381003.12,20216,7.63,71474.3,-5.99,-15.39,-16.59,0,*57
1520381004.4,20217,7.63,71468.3,-5.99,-15.39,-16.69,0,*55
1520381005.68,20218,7.63,71494.0,-5.99,-15.39,-16.69,0,*5A
1520381006.93,20219,7.63,71492.8,-5.99,-15.39,-16.79,0,*5A
1520381008.19,20220,7.63,71500.0,-6.01,-15.39,-16.69,0,*53
1520381009.42,20221,7.56,71496.8,-6.01,-15.39,-16.79,0,*53
1520381010.65,20222,7.63,71496.8,-6.01,-15.39,-16.79,0,*50
1520381011.88,20223,7.63,71496.8,-6.01,-15.43,-16.79,0,*5C
1520381013.13,20224,7.63,71500.0,-5.99,-15.39,-16.89,0,*5B
1520381014.38,20225,7.63,71494.3,-5.99,-15.39,-16.89,0,*5A
1520381015.66,20226,7.63,71506.8,-5.99,-15.43,-16.69,0,*5A
1520381016.92,20227,7.63,71504.8,-5.99,-15.39,-16.59,0,*55
1520381018.18,20228,7.63,71500.3,-5.99,-15.39,-16.59,0,*5A
1520381019.43,20229,7.63,71496.8,-5.99,-15.39,-16.59,0,*5B
1520381020.67,20230,7.63,71488.3,-6.01,-15.39,-16.59,0,*51
1520381021.9,20231,7.63,71482.0,-6.01,-15.43,-16.55,0,*51
1520381023.13,20232,7.63,71486.8,-6.01,-15.43,-16.55,0,*52
1520381024.38,20233,7.63,71484.8,-5.99,-15.39,-16.45,0,*5D
1520381025.66,20234,7.63,71486.5,-5.99,-15.39,-16.31,0,*59
1520381026.91,20235,7.63,71482.5,-6.01,-15.39,-16.17,0,*5E
1520381028.17,20236,7.63,71474.8,-5.99,-15.39,-16.03,0,*5A
1520381029.45,20237,7.63,71474.3,-5.99,-15.39,-15.89,0,*5A
1520381030.73,20238,7.63,71470.0,-5.99,-15.43,-15.89,0,*58
1520381031.95,20239,7.63,71482.8,-6.01,-15.43,-15.67,0,*5B
1520381033.23,20240,7.63,71482.5,-5.99,-15.57,-15.43,0,*54
1520381034.47,20241,7.63,71478.8,-6.01,-15.57,-15.25,0,*57
1520381035.7,20242,7.63,71488.8,-5.97,-15.53,-15.01,0,*5A
1520381036.92,20243,7.63,71488.3,-5.99,-15.53,-14.69,0,*5A
1520381038.18,20244,7.63,71472.8,-5.99,-15.53,-14.55,0,*52
1520381039.43,20245,7.63,71474.0,-5.99,-15.43,-14.29,0,*59
1520381040.68,20246,7.63,71468.3,-5.99,-15.39,-13.93,0,*51
1520381041.91,20247,7.63,71478.8,-5.99,-15.15,-13.51,0,*50
1520381043.16,20248,7.63,71472.5,-5.99,-15.15,-13.37,0,*5F
1520381044.4,20249,7.63,71484.5,-5.99,-15.01,-13.11,0,*5F
1520381045.67,20250,7.63,71486.0,-5.99,-14.97,-12.83,0,*53
1520381046.95,20251,7.63,71480.8,-5.99,-14.79,-12.65,0,*5A
1520381048.19,20252,7.63,71482.0,-5.99,-14.69,-12.53,0,*5D
1520381049.45,20253,7.63,71486.5,-5.99,-14.55,-12.29,0,*5E
1520381050.66,20254,7.63,71484.8,-5.97,-14.37,-12.25,0,*5F
1520381051.92,20255,7.63,71482.3,-5.99,-14.43,-12.25,0,*53
1520381053.15,20256,7.63,71480.3,-5.97,-14.33,-12.11,0,*5E
1520381054.35,20257,7.63,71480.8,-5.97,-14.33,-12.25,0,*58
1520381055.56,20258,7.63,71474.5,-5.97,-14.23,-12.39,0,*5B
1520381056.79,20259,7.63,71470.8,-5.99,-14.37,-12.43,0,*5C
1520381058.08,20260,7.63,71468.5,-5.99,-14.51,-12.57,0,*53
1520381059.36,20261,7.63,71472.8,-5.99,-14.51,-12.65,0,*53
1520381060.61,20262,7.63,71482.8,-5.99,-14.65,-12.83,0,*5F
1520381061.83,20263,7.63,71482.0,-5.99,-14.89,-13.11,0,*56
1520381063.07,20264,7.63,71488.5,-5.99,-14.97,-13.15,0,*5A
1520381064.32,20265,7.63,71502.0,-6.01,-15.01,-13.29,0,*58
1520381065.54,20266,7.63,71492.0,-5.99,-15.15,-13.43,0,*50
1520381066.79,20267,7.63,71498.3,-5.99,-15.25,-13.37,0,*51
1520381068.02,20268,7.63,71500.5,-5.99,-15.25,-13.43,0,*5D
1520381069.27,20269,7.63,71498.0,-5.99,-15.43,-13.51,0,*5F
1520381070.5,20270,7.63,71494.0,-5.99,-15.53,-13.55,0,*52
1520381071.75,20271,7.63,71492.5,-5.99,-15.57,-13.55,0,*57
1520381072.95,20272,7.63,71500.5,-5.97,-15.53,-13.65,0,*5D
1520381074.17,20273,7.63,71506.0,-5.99,-15.67,-13.69,0,*59
1520381075.39,20274,7.63,71506.5,-5.97,-15.63,-13.79,0,*55
1520381076.61,20275,7.63,71502.5,-5.97,-15.63,-13.79,0,*54
1520381077.81,20276,7.63,71492.8,-5.97,-15.53,-13.93,0,*50
1520381079.01,20277,7.63,71490.8,-5.97,-15.53,-14.11,0,*5C
1520381080.24,20278,7.56,71496.0,-5.99,-15.53,-14.23,0,*5C
1520381081.45,20279,7.63,71500.3,-5.97,-15.53,-14.33,0,*52
1520381082.7,20280,7.63,71500.5,-5.99,-15.53,-14.43,0,*5D
1520381083.97,20281,7.63,71494.0,-5.99,-15.43,-14.55,0,*5A
1520381085.2,20282,7.63,71488.5,-5.97,-15.49,-14.75,0,*5F
1520381086.43,20283,7.63,71484.0,-5.97,-15.49,-14.83,0,*57
1520381087.64,20284,7.63,71486.0,-5.97,-15.53,-15.11,0,*51
1520381088.87,20285,7.63,71486.5,-5.97,-15.53,-15.35,0,*56
1520381090.07,20286,7.63,71480.5,-5.97,-15.67,-15.53,0,*52
1520381091.28,20287,7.63,71482.0,-5.97,-15.71,-15.71,0,*54
1520381092.51,20288,7.63,71486.0,-5.97,-15.81,-15.95,0,*5E
1520381093.77,20289,7.63,71482.3,-5.97,-15.81,-16.09,0,*59
1520381095.03,20290,7.63,71468.8,-5.95,-15.81,-16.23,0,*5B
1520381096.25,20291,7.63,71474.3,-5.97,-15.85,-16.37,0,*59
1520381097.5,20292,7.63,71484.8,-5.95,-15.85,-16.55,0,*5C
1520381098.7,20293,7.63,71500.8,-5.97,-15.95,-16.83,0,*55
1520381099.91,20294,7.63,71484.0,-5.97,-15.95,-16.75,0,*5B
1520381101.14,20295,7.63,71458.8,-5.97,-15.85,-16.83,0,*52
1520381102.37,20296,7.63,71472.0,-5.97,-15.85,-16.97,0,*54
1520381103.6,20297,7.63,71476.8,-5.97,-15.85,-16.97,0,*55
1520381104.8,20298,7.63,71474.5,-5.97,-15.95,-16.97,0,*5B
1520381106.06,20299,7.63,71480.8,-5.97,-15.85,-17.11,0,*54
1520381107.29,20300,7.63,71482.0,-5.97,-15.95,-17.17,0,*52
1520381108.51,20301,7.63,71488.3,-5.97,-15.95,-17.17,0,*53
1520381109.74,20302,7.63,71484.3,-5.97,-15.95,-17.25,0,*51
1520381110.97,20303,7.63,71484.0,-5.97,-16.09,-17.31,0,*53
1520381112.16,20304,7.63,71480.3,-5.97,-15.99,-17.31,0,*5E
1520381113.36,20305,7.56,71472.8,-5.97,-15.99,-17.31,0,*5F
1520381114.62,20306,7.63,71492.8,-5.97,-16.09,-17.45,0,*55
1520381115.88,20307,7.63,71488.5,-5.97,-16.13,-17.59,0,*52
1520381117.1,20308,7.63,71488.3,-6.01,-16.31,-17.69,0,*52
1520381118.36,20309,7.63,71490.3,-5.97,-16.27,-17.63,0,*52
1520381119.6,20310,7.63,71490.8,-5.99,-16.41,-17.83,0,*5A
1520381120.82,20311,7.63,71500.5,-5.97,-16.37,-17.79,0,*51
1520381122.05,20312,7.63,71490.5,-5.97,-16.27,-17.73,0,*59
1520381123.29,20313,7.63,71498.3,-5.99,-16.41,-17.83,0,*59
1520381124.55,20314,7.63,71494.0,-5.99,-16.41,-17.79,0,*5B
1520381125.8,20315,7.63,71500.8,-5.99,-16.41,-17.79,0,*5A
1520381127.04,20316,7.63,71494.0,-5.99,-16.41,-17.83,0,*5C
1520381128.3,20317,7.63,71492.8,-5.99,-16.41,-17.79,0,*58
1520381129.53,20318,7.63,71500.5,-5.99,-16.45,-17.83,0,*56
1520381130.79,20319,7.63,71506.3,-5.99,-16.41,-17.79,0,*56
1520381132.05,20320,7.63,71504.8,-5.99,-16.41,-17.79,0,*5C
1520381133.3,20321,7.63,71500.8,-5.99,-16.41,-17.79,0,*5D
1520381134.56,20322,7.63,71506.3,-5.99,-16.55,-17.79,0,*5B
1520381135.81,20323,7.63,71496.5,-5.99,-16.45,-17.79,0,*5B
1520381137.05,20324,7.63,71488.5,-5.99,-16.41,-17.69,0,*59
1520381138.27,20325,7.63,71494.0,-6.01,-16.31,-17.69,0,*5D
1520381139.55,20326,7.63,71496.3,-5.99,-16.27,-17.63,0,*51
1520381140.8,20327,7.63,71484.5,-6.01,-16.31,-17.63,0,*55
1520381142.03,20328,7.63,71488.5,-6.01,-16.31,-17.69,0,*50
1520381143.25,20329,7.63,71496.8,-6.01,-16.31,-17.69,0,*51
1520381144.48,20330,7.63,71488.3,-6.01,-16.31,-17.69,0,*59
1520381145.71,20331,7.63,71492.0,-5.99,-16.41,-17.69,0,*5D
1520381146.95,20332,7.63,71466.3,-5.99,-16.41,-17.69,0,*5E
1520381148.16,20333,7.63,71458.0,-6.01,-16.41,-17.69,0,*5D
1520381149.39,20334,7.63,71444.5,-5.99,-16.45,-17.69,0,*5C
1520381150.64,20335,7.63,71464.5,-5.99,-16.45,-17.63,0,*57
1520381151.87,20336,7.63,71468.3,-5.99,-16.55,-17.69,0,*5F
1520381153.12,20337,7.63,71474.3,-5.99,-16.45,-17.63,0,*55
1520381154.38,20338,7.63,71482.3,-5.99,-16.41,-17.59,0,*57
1520381155.63,20339,7.63,71488.0,-5.99,-16.31,-17.49,0,*50
1520381156.87,20340,7.63,71464.8,-6.01,-16.41,-17.59,0,*5A
1520381158.13,20341,7.63,71466.8,-5.99,-16.41,-17.59,0,*59
1520381159.38,20342,7.63,71458.5,-5.99,-16.31,-17.49,0,*5C
1520381160.62,20343,7.63,71470.0,-5.99,-16.31,-17.49,0,*5D
1520381161.84,20344,7.63,71476.3,-6.01,-16.41,-17.35,0,*54
1520381163.1,20345,7.63,71486.0,-5.99,-16.41,-17.45,0,*50
1520381164.34,20346,7.63,71484.5,-5.99,-16.41,-17.35,0,*54
1520381165.59,20347,7.63,71488.0,-6.01,-16.31,-17.21,0,*55
1520381166.85,20348,7.63,71480.5,-6.01,-16.31,-17.07,0,*5E
1520381168.13,20349,7.63,71478.0,-5.99,-16.31,-17.07,0,*5D
1520381169.33,20350,7.63,71474.0,-6.01,-16.41,-16.93,0,*5C
1520381170.58,20351,7.63,71496.5,-5.99,-16.31,-16.93,0,*58
1520381171.81,20352,7.63,71486.3,-6.01,-16.27,-16.79,0,*5A
1520381173.07,20353,7.63,71464.3,-5.99,-16.27,-16.59,0,*5B
1520381174.32,20354,7.63,71464.8,-5.99,-16.17,-16.45,0,*52
1520381175.6,20355,7.63,71484.0,-5.99,-16.13,-16.31,0,*54
1520381176.85,20356,7.63,71490.3,-5.99,-16.03,-16.31,0,*56
1520381178.08,20357,7.63,71484.5,-6.01,-16.03,-16.27,0,*52
1520381179.34,20358,7.63,71490.8,-6.01,-16.13,-16.17,0,*5F
1520381180.6,20359,7.63,71494.0,-5.99,-16.13,-16.03,0,*59
1520381181.82,20360,7.63,71502.5,-5.99,-16.03,-16.03,0,*52
1520381183.06,20361,7.63,71496.5,-5.97,-16.09,-15.95,0,*5B
1520381184.29,20362,7.63,71496.5,-5.97,-15.99,-15.85,0,*53
1520381185.49,20363,7.63,71496.8,-5.97,-15.99,-15.95,0,*53
1520381186.71,20364,7.63,71508.3,-5.97,-15.99,-15.81,0,*51
1520381187.97,20365,7.63,71500.8,-6.01,-16.17,-15.89,0,*51
1520381189.23,20366,7.63,71508.5,-5.99,-16.17,-15.99,0,*51
1520381190.48,20367,7.63,71500.5,-6.01,-16.27,-15.89,0,*50
1520381191.71,20368,7.63,71490.0,-6.01,-16.27,-15.99,0,*5E
1520381192.96,20369,7.63,71494.8,-5.99,-16.27,-16.03,0,*5D
1520381194.24,20370,7.63,71496.5,-5.99,-16.27,-16.13,0,*54
1520381195.5,20371,7.63,71508.3,-5.99,-16.41,-16.27,0,*52
1520381196.71,20372,7.63,71516.3,-5.97,-16.41,-16.37,0,*5E
1520381197.93,20373,7.63,71516.0,-5.97,-16.37,-16.51,0,*5E
1520381199.14,20374,7.63,71510.8,-6.01,-16.41,-16.55,0,*50
1520381200.4,20375,7.63,71506.8,-5.99,-16.45,-16.69,0,*58
1520381201.66,20376,7.63,71504.0,-5.99,-16.41,-16.69,0,*5F
1520381202.94,20377,7.63,71504.0,-5.99,-16.17,-16.69,0,*5D
1520381204.22,20378,7.63,71502.8,-5.99,-16.17,-16.69,0,*52
1520381205.47,20379,7.63,71494.0,-5.99,-16.17,-16.89,0,*5D
1520381206.7,20380,7.63,71492.0,-5.97,-16.23,-16.83,0,*58
1520381207.93,20381,7.63,71492.3,-5.97,-16.13,-16.89,0,*50
1520381209.16,20382,7.63,71496.0,-5.97,-16.09,-16.97,0,*57
1520381210.42,20383,7.63,71494.0,-5.97,-16.13,-17.11,0,*52
1520381211.66,20384,7.63,71498.0,-5.95,-16.27,-17.31,0,*52
1520381212.91,20385,7.63,71498.5,-5.97,-16.27,-17.45,0,*52
1520381214.14,20386,7.63,71500.5,-5.97,-16.37,-17.59,0,*5D
1520381215.4,20387,7.63,71504.8,-5.97,-16.27,-17.63,0,*54
1520381216.6,20388,7.63,71476.5,-5.97,-16.41,-17.73,0,*5A
1520381217.83,20389,7.63,71488.8,-5.97,-16.51,-17.73,0,*5A
1520381219.06,20390,7.63,71504.0,-5.97,-16.51,-17.73,0,*52
1520381220.26,20391,7.63,71474.8,-5.97,-16.55,-17.73,0,*57
1520381221.49,20392,7.63,71464.5,-5.99,-16.59,-17.69,0,*5D
1520381222.75,20393,7.63,71478.8,-5.99,-16.45,-17.59,0,*52
1520381224.01,20394,7.63,71494.0,-5.99,-16.55,-17.59,0,*54
1520381225.24,20395,7.63,71492.8,-5.99,-16.59,-17.49,0,*58
1520381226.47,20396,7.63,71512.3,-5.99,-16.59,-17.49,0,*5B
1520381227.7,20397,7.63,71490.8,-5.99,-16.59,-17.35,0,*51
1520381228.93,20398,7.63,71506.0,-5.99,-16.59,-17.31,0,*5A
1520381230.19,20399,7.63,71504.8,-5.99,-16.55,-17.03,0,*56
1520381231.42,20400,7.63,71488.8,-5.99,-16.41,-16.93,0,*5C
1520381232.65,20401,7.63,71476.5,-5.99,-16.41,-16.79,0,*59
1520381233.89,20402,7.63,71488.5,-5.99,-16.41,-16.59,0,*58
1520381235.13,20403,7.63,71490.3,-5.99,-16.31,-16.45,0,*53
1520381236.41,20404,7.63,71500.0,-5.99,-16.27,-16.31,0,*50
1520381237.69,20405,7.63,71502.3,-5.99,-16.17,-16.13,0,*52
1520381238.95,20406,7.63,71500.5,-5.99,-16.13,-16.03,0,*54
1520381240.2,20407,7.63,71506.8,-5.99,-16.03,-15.89,0,*55
1520381241.46,20408,7.63,71500.0,-5.99,-15.89,-15.75,0,*58
1520381242.67,20409,7.63,71496.3,-5.97,-15.63,-15.53,0,*57
1520381243.9,20410,7.63,71492.5,-5.97,-15.39,-15.53,0,*50
1520381245.14,20411,7.63,71484.0,-5.99,-15.25,-15.53,0,*52
1520381246.35,20412,7.63,71488.8,-5.97,-15.07,-15.49,0,*54
1520381247.58,20413,7.63,71488.5,-5.97,-14.97,-15.53,0,*56
1520381248.81,20414,7.63,71490.0,-5.97,-14.79,-15.49,0,*5A
1520381250.01,20415,7.63,71490.0,-5.97,-14.65,-15.63,0,*5E
1520381251.28,20416,7.63,71488.8,-5.97,-14.83,-15.81,0,*59
1520381252.52,20417,7.63,71492.0,-5.95,-14.79,-15.95,0,*5A
1520381253.75,20418,7.63,71488.0,-5.97,-14.65,-15.85,0,*5B
1520381254.95,20419,7.63,71484.3,-5.97,-14.65,-15.95,0,*5B
1520381256.16,20420,7.63,71482.5,-5.95,-14.65,-15.95,0,*53
1520381257.42,20421,7.63,71480.0,-5.97,-14.75,-16.09,0,*57
1520381258.67,20422,7.63,71480.0,-5.97,-14.79,-16.23,0,*50
1520381259.92,20423,7.63,71478.8,-5.97,-14.83,-16.27,0,*50
1520381261.15,20424,7.63,71476.5,-5.97,-14.93,-16.37,0,*57
1520381262.37,20425,7.63,71478.8,-5.97,-14.93,-16.37,0,*56
1520381263.63,20426,7.63,71482.5,-5.97,-14.83,-16.27,0,*55
1520381264.88,20427,7.63,71490.5,-5.97,-14.79,-16.27,0,*51
1520381266.16,20428,7.63,71496.3,-5.99,-14.83,-16.27,0,*55
1520381267.43,20429,7.63,71494.8,-5.99,-14.97,-16.31,0,*56
1520381268.66,20430,7.63,71500.3,-5.99,-14.89,-16.41,0,*56
1520381269.93,20431,7.63,71492.5,-5.95,-14.83,-16.23,0,*55
1520381271.17,20432,7.63,71486.3,-5.97,-14.93,-16.27,0,*51
1520381272.39,20433,7.63,71474.5,-5.97,-14.93,-16.37,0,*51
1520381273.64,20434,7.63,71468.8,-5.97,-14.93,-16.27,0,*57
1520381274.89,20435,7.63,71472.0,-5.99,-14.97,-16.55,0,*59
1520381276.14,20436,7.63,71480.5,-5.99,-15.01,-16.55,0,*54
1520381277.36,20437,7.63,71484.3,-6.01,-15.01,-16.89,0,*56
1520381278.58,20438,7.63,71500.8,-5.99,-15.25,-16.93,0,*56
1520381279.84,20439,7.63,71504.3,-5.99,-15.15,-17.03,0,*5C
1520381281.04,20440,7.63,71510.0,-5.97,-15.07,-16.97,0,*53
1520381282.29,20441,7.63,71482.5,-5.99,-15.15,-17.03,0,*53
1520381283.55,20442,7.63,71482.8,-5.99,-15.25,-17.07,0,*57
1520381284.81,20443,7.63,71498.8,-5.99,-15.29,-17.17,0,*5B
1520381286.07,20444,7.63,71492.5,-5.99,-15.29,-17.07,0,*5D
1520381287.35,20445,7.63,71470.3,-5.99,-15.39,-17.17,0,*5C
1520381288.62,20446,7.63,71454.3,-5.99,-15.39,-17.17,0,*5F
1520381289.91,20447,7.63,71438.5,-5.99,-15.39,-17.07,0,*5F
1520381291.19,20448,7.63,71444.8,-5.99,-15.39,-17.07,0,*50
1520381292.48,20449,7.63,71468.0,-5.99,-15.39,-17.07,0,*51
1520381293.77,20450,7.63,71476.0,-5.99,-15.39,-17.07,0,*59
1520381295.05,20451,7.63,71482.0,-5.99,-15.39,-17.07,0,*58
1520381296.34,20452,7.63,71484.5,-5.99,-15.43,-17.07,0,*56
1520381297.59,20453,7.63,71472.3,-5.99,-15.53,-17.17,0,*57
1520381298.87,20454,7.63,71476.8,-5.99,-15.57,-17.21,0,*51
1520381300.1,20455,7.63,71474.8,-5.99,-15.71,-17.35,0,*51
1520381301.35,20456,7.63,71492.8,-5.99,-15.85,-17.31,0,*5D
1520381302.63,20457,7.63,71496.3,-5.99,-15.85,-17.45,0,*5F
1520381303.88,20458,7.63,71486.5,-5.99,-15.99,-17.59,0,*50